Flag for U.S.A. Weather past 2 weeks in Riverside, California, U.S.A.

Now
77 °F

Clear.


Feels Like: 79 °F
Forecast: 73 / 102 °F
Wind: No wind

Location: Riverside Municipal Airport

Current Time: Aug 28, 2015 at 3:01:43 AM

Latest Report: Aug 28, 2015 at 1:53 AM


Visibility: 10 mi

Pressure: 29.87 "Hg

Humidity: 52%

Dew point: 58 °F

Location of RiversideLocation

Historic Weather in Riverside — Graph

°F

Riverside temperature yesterday

Maximum temperature yesterday: 101 °F (at 2:53 PM)
Minimum temperature yesterday: 71 °F (at 5:53 AM)
Average temperature yesterday: 86 °F

Past Weeks' High & Low Weather Summary

 TemperatureHumidityPressure
High106 °F (Aug 15, 1:53 PM)91% (Aug 19, 6:53 AM)29.95 "Hg (Aug 19, 6:53 AM)
Low65 °F (Aug 19, 5:53 AM)8% (Aug 16, 1:53 PM)29.74 "Hg (Aug 16, 5:53 PM)
Average81 °F50%29.86 "Hg
* Reported Aug 13 1:53 AM — Aug 28 1:53 AM, Riverside, Weather by CustomWeather, © 2015

Note: Actual official high and low records may vary slightly from our data, if they occured in-between our weather recording intervals... More about our weather records

Advertising

Riverside weather history for previous 24 hours

 ConditionsComfort  
Time TempWeatherWind HumidityBarometerVisibility
1:53 AM
Fri, Aug 28
77 °FClear.No wind52%29.87 "Hg10 mi
12:53 AM80 °FClear.No wind45%29.88 "Hg10 mi
11:53 PM
Thu, Aug 27
81 °FClear.No wind44%29.88 "Hg10 mi
10:53 PM82 °FClear.5 mph41%29.88 "Hg10 mi
9:53 PM83 °FClear.3 mph41%29.89 "Hg10 mi
8:53 PM86 °FClear.No wind37%29.88 "Hg10 mi
7:53 PM88 °FSunny.10 mph35%29.84 "Hg10 mi
6:53 PM92 °FSunny.12 mph29%29.82 "Hg10 mi
5:53 PM95 °FSunny.14 mph28%29.81 "Hg10 mi
4:53 PM99 °FSunny.10 mph19%29.81 "Hg10 mi
3:53 PM101 °FSunny.13 mph18%29.83 "Hg10 mi
2:53 PM101 °FPassing clouds.15 mph19%29.85 "Hg10 mi
1:53 PM100 °FSunny.10 mph19%29.87 "Hg10 mi
12:53 PM99 °FSunny.7 mph19%29.90 "Hg10 mi
11:53 AM96 °FPassing clouds.6 mph20%29.93 "Hg10 mi
10:53 AM92 °FSunny.3 mph27%29.94 "Hg10 mi
9:53 AM88 °FSunny.5 mph33%29.94 "Hg10 mi
8:53 AM83 °FSunny.No wind43%29.95 "Hg10 mi
7:53 AM76 °FSunny.No wind52%29.95 "Hg10 mi
6:53 AM72 °FClear.No wind61%29.94 "Hg10 mi
5:53 AM71 °FClear.No wind66%29.93 "Hg10 mi
4:53 AM73 °FClear.No wind59%29.92 "Hg10 mi
3:53 AM74 °FClear.No wind60%29.92 "Hg10 mi
Weather by CustomWeather, © 2015

See weather overviewHow to use our weather pages